{"data":{"norad_id":56405,"epoch":"2026-05-25T04:22:03.610272Z","epoch_age_seconds":62785,"freshness":"FRESH","line1":"1 56405U 23061AH  26145.18198623  .00000358  00000+0  22528-4 0  9996","line2":"2 56405  43.0045 115.0010 0001685 267.7239  92.3420 15.27576975168573","mean_motion":15.27576975,"eccentricity":0.0001685,"inclination_deg":43.0045,"raan_deg":115.001,"arg_perigee_deg":267.7239,"mean_anomaly_deg":92.342,"bstar":2.2528e-5,"rev_number":16857,"period_min":94.266935386349,"perigee_km":481.90204260939,"apogee_km":484.21426537629,"semimajor_km":6861.1951539928,"source":"CELESTRAK","updated_at":"2026-05-25T13:38:18.016136Z"}}